Regional Weather Roundup
Issued by NWS

Home | Current Version | Previous Version | Text Only | Print | Product List | Glossary Off
Versions: 1 2 3 4 5 6 7 8 9 10 11 12 13 14 15 16 17 18 19 20 21 22 23 24 25 26 27 28 29 30 31 32 33 34 35 36 37 38 39 40 41 42 43 44 45 46 47 48 49 50

393
ASUS43 KMKX 300811
RWRWI

WISCONSIN REGIONAL WEATHER ROUNDUP
NATIONAL WEATHER SERVICE MILWAUKEE/SULLIVAN WI
300 AM CDT SAT JUL 30 2016

NOTE: "FAIR" INDICATES FEW OR NO CLOUDS BELOW 12,000 FEET WITH NO
SIGNIFICANT WEATHER AND/OR OBSTRUCTIONS TO VISIBILITY.

WIZ001-002-006>008-014>016-023>028-300900-
NORTHWEST WISCONSIN

CITY           SKY/WX    TMP DP  RH WIND       PRES   REMARKS
SUPERIOR ARPT  FOG       51  51 100 CALM      30.05F VSB 3/4
ASHLAND        CLEAR     52  51  97 CALM      30.06S FOG
HAYWARD        CLEAR     53  51  93 CALM      30.06F
SIREN          NOT AVBL
CUMBERLAND     MOCLDY    57  55  94 CALM      30.06S
RICE LAKE      MOCLDY    57  55  92 CALM      30.07S
CHETEK         CLEAR     59  58  96 CALM      30.06S
LADYSMITH      CLEAR     58  56  94 CALM      30.08S
EAU CLAIRE     CLEAR     61  61 100 NE5       30.03S
MENOMONIE      PTCLDY    62  60  93 NW3       30.04F
NEW RICHMOND   CLEAR     59  58  97 CALM      30.04S
OSCEOLA        CLEAR     59  59 100 CALM      30.06S
$$

WIZ003>005-009-010-017-018-300900-
NORTH CENTRAL WISCONSIN

CITY           SKY/WX    TMP DP  RH WIND       PRES   REMARKS
MANITOWISH WTR CLEAR     55  55 100 CALM      30.08F
ARBOR VITAE    CLEAR     58  56  96 CALM      30.09S
WOODRUFF       CLEAR     58  56  96 CALM      30.09S
RHINELANDER    CLEAR     54  52  93 CALM      30.09F
EAGLE RIVER    PTCLDY    54  54 100 CALM      30.09S
LAND O LAKES   PTCLDY    51  50  97 CALM      30.11S
PHILLIPS       CLEAR     56  56  99 CALM      30.08S
TOMAHAWK       CLEAR     49  48  97 CALM      30.09S FOG
MEDFORD        CLOUDY    56  56 100 N3        30.08R
MERRILL        PTCLDY    53  53 100 NE3       30.08S
$$

WIZ029-030-035-036-043>047-300900-
CENTRAL WISCONSIN

CITY           SKY/WX    TMP DP  RH WIND       PRES   REMARKS
WAUSAU         CLEAR     59  55  87 CALM      30.05S
MOSINEE        PTCLDY    57  55  94 NE6       30.07R
MARSHFIELD     CLOUDY    62  57  83 NE5       30.05S
STEVENS POINT  CLOUDY    59  57  94 NE5       30.05S
WAUPACA        CLOUDY    66  62  87 CALM      30.03S
WAUTOMA        CLOUDY    64  60  87 NE5       30.02S
WISC RAPIDS    CLOUDY    64  56  75 NE5       30.05R
CAMP DOUGLAS   FOG       58  57  99 W2        30.02S VSB 1/2
$$

WIZ011>013-019>022-031-037>040-048>050-300900-
NORTHEAST WISCONSIN

CITY           SKY/WX    TMP DP  RH WIND       PRES   REMARKS
ANTIGO         MOCLDY    54  52  95 CALM      30.08S
SHAWANO        MOCLDY    64  58  80 NE6       30.05S
OCONTO         PTCLDY    60  60 100 N3        30.03S
STURGEON BAY   CLEAR     67  62  84 SE7       30.04R
GREEN BAY      CLEAR     61  60  97 N6        30.02S
MANITOWOC      PTCLDY    62  60  93 CALM      30.02S
APPLETON       CLOUDY    63  54  72 NE3       30.01S
CLINTONVILLE   CLOUDY    63  55  77 N5        30.04R
OSHKOSH        MOCLDY    68  61  78 E3        30.00F
$$

WIZ032>034-041-042-053>061-300900-
SOUTHWEST WISCONSIN

CITY           SKY/WX    TMP DP  RH WIND       PRES   REMARKS
LA CROSSE      CLOUDY    67  65  93 CALM      30.01S
SPARTA         CLOUDY    62  61  97 CALM      30.03S
VIROQUA        CLOUDY    65  65 100 NE3       30.03S
BOSCOBEL       FOG       63  62  97 CALM      30.01R VSB 3/4
PRAIRIE DU CHI   N/A     66  64  90 CALM      30.00S
PLATTEVILLE    CLEAR     63  63 100 N5        30.00R
$$

WIZ056-057-062-063-064-067-068-300900-
SOUTH CENTRAL WISCONSIN

CITY           SKY/WX    TMP DP  RH WIND       PRES   REMARKS
REEDSBURG      CLEAR     60  60 100 CALM      30.01R
BARABOO/DELLS  CLOUDY    62  59  90 CALM      30.02R
LONE ROCK      PTCLDY    63  62  97 W3        30.01R
MINERAL POINT  CLOUDY    64  63  94 N3        30.00S
MADISON        CLOUDY    64  59  83 N5        29.99S
MIDDLETON      CLOUDY    66  62  89 N3        30.00S
WATERTOWN      CLOUDY    63  63 100 NE5       29.98S
MONROE         CLOUDY    63  63 100 N8        29.98S
JANESVILLE     CLOUDY    66  64  94 CALM      29.96S
$$

WIZ051-052-058>065-066-070>072-300900-
SOUTHEAST WISCONSIN

CITY           SKY/WX    TMP DP  RH WIND       PRES   REMARKS
MILWAUKEE      CLOUDY    69  59  70 E8        29.97S
WAUKESHA       PTCLDY    64  59  82 NE7       30.00S
MILWAUKEE/TIMM CLEAR     64  55  72 CALM      29.99F
RACINE         PTCLDY    68  63  84 E9        29.99R
BURLINGTON     PTCLDY    64  63  97 NE3       29.97S
KENOSHA        PTCLDY    67  64  90 E10       29.97S
FOND DU LAC    CLOUDY    66  59  78 E5        30.01S
SHEBOYGAN      PTCLDY    60  59  96 CALM      30.01S FOG
WEST BEND      MOCLDY    61  59  94 CALM      30.00S
JUNEAU         CLOUDY    63  60  87 NE5       30.01S
$$

LSZ147-162-300900-
LAKE SUPERIOR

STATION/POSITION TIME  TEMP    WIND        PRES    WAVE
                       AIR SEA DIR/SP/G            HT/PER
                 (UTC) (F)     (DEG/KT/KT) (MB)    (FT/S)
W MID LAKE BUOY  0750   62 62   40/  4/  4 1017.3F   1
DEVILS ISLAND    0800   64      30/  6/  7 1017.5F
PORT WING        0700   56     130/  2/  4 1018.3
SAXON HARBOR     0700   57     200/  4/  5 1017.3
$$

LMZ867-665-643>646-300900-
LAKE MICHIGAN

STATION/POSITION TIME  TEMP    WIND        PRES    WAVE
                       AIR SEA DIR/SP/G            HT/PER
                 (UTC) (F)     (DEG/KT/KT) (MB)    (FT/S)
CHAMBERS ISLAND  0740   70      50/  8/ 10 1017.3S
S GREEN BAY BUOY 0730   69 70   50/ 10/ 12 1016.1F
N MID LAKE BUOY  0750   70 69  120/  8/ 10 1017.1S   1/ 3
NORTHPORT PIER   0700   71      80/  7/ 10 1017.3S
SISTER BAY       0721   66     120/  6/  7   N/A
ALGOMA LAKESHORE 0743          170/ 12/ 15   N/A
KEWAUNEE LAKESHO 0700   67      30/  4/  5 1015.9F
SHEBOYGAN LAKESH 0800   70      90/ 12/ 13 1016.0F
PORT WASHINGTON  0700   68      80/  6/  7 1016.6
ATWATER BUOY     0700   67 62  100/  8/ 12 1016.7F
MILWAUKEE LAKESH 0710   67      70/ 10/ 10   N/A
S MID LAKE BUOY  0750   68 74   60/ 19/ 23 1013.8S   3/ 5
KENOSHA   LAKESH 0800   69      80/ 15/ 18 1014.6R
$$

TC  - TEMPERATURE IN CELSIUS
VSB - VISIBILITY IN STATUTE MILES
WCI - WIND CHILL INDEX
HX  - HEAT INDEX





USA.gov is the U.S. government's official web portal to all federal, state and local government web resources and services.